Time,TemperatureF,DewpointF,PressureIn,WindDirection,WindDirectionDegrees,WindSpeedMPH,WindSpeedGustMPH,Humidity,HourlyPrecipIn,Conditions,Clouds,dailyrainin,SoftwareType,DateUTC
2013-11-15 00:00:00,41.2,16.2,30.18,SW,222,0.0,8.0,36,0.00,,,0.00,Wunderground v.1.15,2013-11-15 05:00:00,
2013-11-15 00:05:00,41.2,16.2,30.18,SW,222,0.0,8.0,36,0.00,,,0.00,Wunderground v.1.15,2013-11-15 05:05:00,
2013-11-15 00:10:00,41.0,16.7,30.18,SW,222,0.0,8.0,37,0.00,,,0.00,Wunderground v.1.15,2013-11-15 05:10:00,
2013-11-15 00:15:00,40.7,15.8,30.18,WSW,249,0.0,8.0,36,0.00,,,0.00,Wunderground v.1.15,2013-11-15 05:15:00,
2013-11-15 00:20:00,40.7,16.4,30.18,SW,232,0.0,8.0,37,0.00,,,0.00,Wunderground v.1.15,2013-11-15 05:20:00,
2013-11-15 00:25:00,40.9,16.0,30.17,West,272,1.0,8.0,36,0.00,,,0.00,Wunderground v.1.15,2013-11-15 05:25:00,
2013-11-15 00:30:00,40.7,16.4,30.18,West,270,1.0,8.0,37,0.00,,,0.00,Wunderground v.1.15,2013-11-15 05:30:00,
2013-11-15 00:35:00,40.5,16.2,30.18,WSW,253,0.0,8.0,37,0.00,,,0.00,Wunderground v.1.15,2013-11-15 05:35:00,
2013-11-15 00:40:00,40.3,17.3,30.18,WSW,253,0.0,8.0,39,0.00,,,0.00,Wunderground v.1.15,2013-11-15 05:40:00,
2013-11-15 00:45:00,39.9,16.9,30.18,WSW,253,0.0,8.0,39,0.00,,,0.00,Wunderground v.1.15,2013-11-15 05:45:00,
2013-11-15 00:55:00,39.7,16.7,30.17,SW,222,1.0,8.0,39,0.00,,,0.00,Wunderground v.1.15,2013-11-15 05:55:00,
2013-11-15 01:00:00,39.6,17.2,30.18,West,261,1.0,1.0,40,0.00,,,0.00,Wunderground v.1.15,2013-11-15 06:00:00,
2013-11-15 01:05:00,39.4,15.9,30.18,SW,230,0.0,2.0,38,0.00,,,0.00,Wunderground v.1.15,2013-11-15 06:05:00,
2013-11-15 01:10:00,39.3,16.4,30.18,SW,230,0.0,8.0,39,0.00,,,0.00,Wunderground v.1.15,2013-11-15 06:10:00,
2013-11-15 01:15:00,39.1,16.8,30.18,SW,230,0.0,8.0,40,0.00,,,0.00,Wunderground v.1.15,2013-11-15 06:15:00,
2013-11-15 01:20:00,38.7,16.4,30.18,SW,230,0.0,8.0,40,0.00,,,0.00,Wunderground v.1.15,2013-11-15 06:20:00,
2013-11-15 01:25:00,38.5,15.1,30.18,SW,230,0.0,8.0,38,0.00,,,0.00,Wunderground v.1.15,2013-11-15 06:25:00,
2013-11-15 01:30:00,38.6,15.7,30.18,SW,230,0.0,8.0,39,0.00,,,0.00,Wunderground v.1.15,2013-11-15 06:30:00,
2013-11-15 01:40:00,39.0,16.1,30.18,SW,230,0.0,8.0,39,0.00,,,0.00,Wunderground v.1.15,2013-11-15 06:40:00,
2013-11-15 01:45:00,38.8,15.9,30.18,SW,230,0.0,8.0,39,0.00,,,0.00,Wunderground v.1.15,2013-11-15 06:45:00,
2013-11-15 01:50:00,38.6,15.7,30.19,SW,230,0.0,8.0,39,0.00,,,0.00,Wunderground v.1.15,2013-11-15 06:50:00,
2013-11-15 01:55:00,38.3,15.5,30.18,SW,230,0.0,8.0,39,0.00,,,0.00,Wunderground v.1.15,2013-11-15 06:55:00,
2013-11-15 02:05:00,38.4,15.0,30.19,SW,230,0.0,8.0,38,0.00,,,0.00,Wunderground v.1.15,2013-11-15 07:05:00,
2013-11-15 02:10:00,38.5,15.7,30.19,SW,230,0.0,8.0,39,0.00,,,0.00,Wunderground v.1.15,2013-11-15 07:10:00,
2013-11-15 02:15:00,38.5,15.7,30.19,SW,230,0.0,8.0,39,0.00,,,0.00,Wunderground v.1.15,2013-11-15 07:15:00,
2013-11-15 02:20:00,38.4,15.6,30.19,SW,230,0.0,8.0,39,0.00,,,0.00,Wunderground v.1.15,2013-11-15 07:20:00,
2013-11-15 02:25:00,38.4,15.6,30.19,WSW,246,0.0,8.0,39,0.00,,,0.00,Wunderground v.1.15,2013-11-15 07:25:00,
2013-11-15 02:30:00,38.5,15.7,30.19,SW,227,0.0,8.0,39,0.00,,,0.00,Wunderground v.1.15,2013-11-15 07:30:00,
2013-11-15 02:35:00,38.6,15.1,30.19,SW,225,0.0,8.0,38,0.00,,,0.00,Wunderground v.1.15,2013-11-15 07:35:00,
2013-11-15 02:40:00,38.8,15.9,30.19,SW,225,0.0,8.0,39,0.00,,,0.00,Wunderground v.1.15,2013-11-15 07:40:00,
2013-11-15 02:50:00,39.0,17.3,30.19,SW,225,0.0,8.0,41,0.00,,,0.00,Wunderground v.1.15,2013-11-15 07:50:00,
2013-11-15 02:55:00,38.9,16.0,30.18,West,265,0.0,8.0,39,0.00,,,0.00,Wunderground v.1.15,2013-11-15 07:55:00,
2013-11-15 03:00:00,39.3,17.5,30.18,WSW,257,1.0,8.0,41,0.00,,,0.00,Wunderground v.1.15,2013-11-15 08:00:00,
2013-11-15 03:05:00,39.1,17.4,30.18,WSW,245,1.0,8.0,41,0.00,,,0.00,Wunderground v.1.15,2013-11-15 08:05:00,
2013-11-15 03:10:00,38.9,17.7,30.19,WSW,245,0.0,8.0,42,0.00,,,0.00,Wunderground v.1.15,2013-11-15 08:10:00,
2013-11-15 03:15:00,38.7,18.1,30.19,WSW,257,0.0,8.0,43,0.00,,,0.00,Wunderground v.1.15,2013-11-15 08:15:00,
2013-11-15 03:20:00,38.5,17.9,30.19,WSW,257,0.0,8.0,43,0.00,,,0.00,Wunderground v.1.15,2013-11-15 08:20:00,
2013-11-15 03:25:00,38.3,17.7,30.19,WSW,257,0.0,8.0,43,0.00,,,0.00,Wunderground v.1.15,2013-11-15 08:25:00,
2013-11-15 03:30:00,38.2,17.1,30.20,West,271,0.0,8.0,42,0.00,,,0.00,Wunderground v.1.15,2013-11-15 08:30:00,
2013-11-15 03:35:00,38.2,17.1,30.20,West,271,0.0,8.0,42,0.00,,,0.00,Wunderground v.1.15,2013-11-15 08:35:00,
2013-11-15 03:45:00,38.3,17.2,30.19,West,279,0.0,8.0,42,0.00,,,0.00,Wunderground v.1.15,2013-11-15 08:45:00,
2013-11-15 03:50:00,38.5,17.9,30.19,West,279,0.0,8.0,43,0.00,,,0.00,Wunderground v.1.15,2013-11-15 08:50:00,
2013-11-15 03:55:00,38.5,17.9,30.19,WNW,284,0.0,8.0,43,0.00,,,0.00,Wunderground v.1.15,2013-11-15 08:55:00,
2013-11-15 04:00:00,38.5,17.4,30.19,SW,220,0.0,8.0,42,0.00,,,0.00,Wunderground v.1.15,2013-11-15 09:00:00,
2013-11-15 04:05:00,38.8,17.1,30.19,SW,220,0.0,8.0,41,0.00,,,0.00,Wunderground v.1.15,2013-11-15 09:05:00,
2013-11-15 04:10:00,38.9,17.2,30.19,SW,220,0.0,8.0,41,0.00,,,0.00,Wunderground v.1.15,2013-11-15 09:10:00,
2013-11-15 04:15:00,39.1,16.8,30.19,SW,220,0.0,8.0,40,0.00,,,0.00,Wunderground v.1.15,2013-11-15 09:15:00,
2013-11-15 04:25:00,39.4,17.0,30.19,SW,220,0.0,8.0,40,0.00,,,0.00,Wunderground v.1.15,2013-11-15 09:25:00,
2013-11-15 04:30:00,39.3,17.0,30.19,SW,225,0.0,8.0,40,0.00,,,0.00,Wunderground v.1.15,2013-11-15 09:30:00,
2013-11-15 04:35:00,39.3,17.5,30.19,SW,225,0.0,8.0,41,0.00,,,0.00,Wunderground v.1.15,2013-11-15 09:35:00,
2013-11-15 04:40:00,39.1,17.4,30.19,SW,225,0.0,8.0,41,0.00,,,0.00,Wunderground v.1.15,2013-11-15 09:40:00,
2013-11-15 04:45:00,38.9,17.2,30.19,SW,225,0.0,8.0,41,0.00,,,0.00,Wunderground v.1.15,2013-11-15 09:45:00,
2013-11-15 04:55:00,38.6,16.9,30.19,SW,225,0.0,8.0,41,0.00,,,0.00,Wunderground v.1.15,2013-11-15 09:55:00,
2013-11-15 05:00:00,38.5,16.8,30.19,SW,225,0.0,8.0,41,0.00,,,0.00,Wunderground v.1.15,2013-11-15 10:00:00,
2013-11-15 05:05:00,38.4,16.7,30.19,SW,225,0.0,8.0,41,0.00,,,0.00,Wunderground v.1.15,2013-11-15 10:05:00,
2013-11-15 05:10:00,38.4,16.7,30.19,SW,225,0.0,8.0,41,0.00,,,0.00,Wunderground v.1.15,2013-11-15 10:10:00,
2013-11-15 05:15:00,38.4,17.3,30.19,SW,225,0.0,8.0,42,0.00,,,0.00,Wunderground v.1.15,2013-11-15 10:15:00,
2013-11-15 05:20:00,38.0,16.9,30.19,SW,225,0.0,8.0,42,0.00,,,0.00,Wunderground v.1.15,2013-11-15 10:20:00,
2013-11-15 05:25:00,37.6,16.5,30.19,SW,225,0.0,8.0,42,0.00,,,0.00,Wunderground v.1.15,2013-11-15 10:25:00,
2013-11-15 05:35:00,37.4,16.4,30.20,SW,225,0.0,8.0,42,0.00,,,0.00,Wunderground v.1.15,2013-11-15 10:35:00,
2013-11-15 05:40:00,37.5,16.5,30.20,SW,225,0.0,8.0,42,0.00,,,0.00,Wunderground v.1.15,2013-11-15 10:40:00,
2013-11-15 05:50:00,37.4,16.4,30.21,SW,225,1.0,8.0,42,0.00,,,0.00,Wunderground v.1.15,2013-11-15 10:50:00,
2013-11-15 05:55:00,37.4,16.4,30.20,SW,225,1.0,8.0,42,0.00,,,0.00,Wunderground v.1.15,2013-11-15 10:55:00,
2013-11-15 06:00:00,37.3,16.3,30.21,SW,225,1.0,1.0,42,0.00,,,0.00,Wunderground v.1.15,2013-11-15 11:00:00,
2013-11-15 06:05:00,37.3,16.3,30.21,SW,225,0.0,8.0,42,0.00,,,0.00,Wunderground v.1.15,2013-11-15 11:05:00,
2013-11-15 06:10:00,37.3,16.8,30.21,SW,225,0.0,8.0,43,0.00,,,0.00,Wunderground v.1.15,2013-11-15 11:10:00,
2013-11-15 06:15:00,37.1,16.6,30.21,SW,225,0.0,8.0,43,0.00,,,0.00,Wunderground v.1.15,2013-11-15 11:15:00,
2013-11-15 06:20:00,37.0,16.5,30.21,SW,225,0.0,8.0,43,0.00,,,0.00,Wunderground v.1.15,2013-11-15 11:20:00,
2013-11-15 06:25:00,37.0,16.5,30.21,SW,225,1.0,8.0,43,0.00,,,0.00,Wunderground v.1.15,2013-11-15 11:25:00,
2013-11-15 06:30:00,36.9,17.0,30.21,SW,225,0.0,8.0,44,0.00,,,0.00,Wunderground v.1.15,2013-11-15 11:30:00,
2013-11-15 06:40:00,36.6,17.2,30.21,SW,225,0.0,8.0,45,0.00,,,0.00,Wunderground v.1.15,2013-11-15 11:40:00,
2013-11-15 06:45:00,36.6,17.2,30.21,SW,225,0.0,8.0,45,0.00,,,0.00,Wunderground v.1.15,2013-11-15 11:45:00,
2013-11-15 06:50:00,36.6,17.2,30.21,SW,225,0.0,8.0,45,0.00,,,0.00,Wunderground v.1.15,2013-11-15 11:50:00,
2013-11-15 06:55:00,36.5,17.1,30.21,North,5,1.0,8.0,45,0.00,,,0.00,Wunderground v.1.15,2013-11-15 11:55:00,
2013-11-15 07:00:00,36.4,17.6,30.21,NNE,25,2.0,8.0,46,0.00,,,0.00,Wunderground v.1.15,2013-11-15 12:00:00,
2013-11-15 07:05:00,36.5,17.1,30.21,NNE,25,2.0,8.0,45,0.00,,,0.00,Wunderground v.1.15,2013-11-15 12:05:00,
2013-11-15 07:15:00,37.0,18.1,30.22,NNE,25,1.0,8.0,46,0.00,,,0.00,Wunderground v.1.15,2013-11-15 12:15:00,
2013-11-15 07:20:00,37.3,17.9,30.23,NNE,25,0.0,8.0,45,0.00,,,0.00,Wunderground v.1.15,2013-11-15 12:20:00,
2013-11-15 07:25:00,37.4,18.0,30.22,NNE,25,0.0,8.0,45,0.00,,,0.00,Wunderground v.1.15,2013-11-15 12:25:00,